Tracking 20621 objects as of 30-Mar-2020
HD Live streaming from Space Station
objects crossing your sky now

PEGASUS DEB

Track PEGASUS DEB now!
10-day predictions


NORAD ID: 24340
Int'l Code: 1994-029NR
Perigee: 579.7 km
Apogee: 1,949.9 km
Inclination: 81.6 °
Period: 110.7 minutes
Semi major axis: 7635 km
RCS: 0.0401 m2 (small)
Launch date: May 19, 1994
Source: United States (US)
Launch site: AIR FORCE WESTERN TEST RANGE (AFWTR)

Note: This is SATELLITE DEBRIS
aabbcc
Your satellite tracking list
Your tracking list is empty




NASA's NSSDC Master Catalog

Two Line Element Set (TLE):
1 24340U 94029NR  20090.06979368 -.00000175 +00000-0 -81004-4 0  9998
2 24340 081.5739 306.0811 0897188 238.1013 112.9787 13.01125615229144
Source of the keplerian elements: AFSPC